Regional Weather Roundup
Issued by NWS

Home | Current Version | Previous Version | Text Only | Print | Product List | Glossary Off
Versions: 1 2 3 4 5 6 7 8 9 10 11 12 13 14 15 16 17 18 19 20 21 22 23 24 25 26 27 28 29 30 31 32 33 34 35 36 37 38 39 40 41 42 43 44 45 46 47 48 49 50

000
ASUS43 KBIS 020001
RWRND

NORTH DAKOTA REGIONAL WEATHER ROUNDUP
NATIONAL WEATHER SERVICE BISMARCK ND
600 PM CST SUN MAR 01 2015

NOTE: "FAIR" INDICATES FEW OR NO CLOUDS BELOW 12,000 FEET WITH NO
SIGNIFICANT WEATHER AND/OR OBSTRUCTIONS TO VISIBILITY.


NDZ001>003-009>011-017-020100-
NORTHWEST NORTH DAKOTA

CITY           SKY/WX    TMP DP  RH WIND       PRES   REMARKS
WILLISTON      CLEAR     24   8  50 NW3       30.29S
6HR MIN TEMP:  20; 6HR MAX TEMP:  26;

MINOT          CLEAR     20   8  60 W12       30.28S WCI   8
$$

NDZ018>021-031>035-040>046-020100-
SOUTHWEST NORTH DAKOTA

CITY           SKY/WX    TMP DP  RH WIND       PRES   REMARKS
BISMARCK       CLEAR     23   8  52 NW13      30.34R WCI  11
6HR MIN TEMP:  23; 6HR MAX TEMP:  27; 6HR PCP: TRACE;

DICKINSON      FLURRIES  22  11  62 W9        30.26S WCI  12
GARRISON         N/A     19  11  70 W6        30.30R WCI  11
6HR MIN TEMP:  18; 6HR MAX TEMP:  22;

HETTINGER ARPT MOCLDY    22   9  57 W9        30.29R WCI  12
$$

NDZ004>008-012>016-024-026-027-054-020100-
NORTHEAST NORTH DAKOTA

CITY           SKY/WX    TMP DP  RH WIND       PRES   REMARKS
GRAND FORKS    PTCLDY    18   6  59 NW10      30.29R WCI   6
GRND FRKS AFB  PTCLDY    18   8  65 NW9       30.29R WCI   7
DEVILS LAKE    CLEAR     16   7  67 W12       30.27R WCI   3
$$

NDZ022-023-025-028>030-036>039-047>053-020100-
SOUTHEAST NORTH DAKOTA

CITY           SKY/WX    TMP DP  RH WIND       PRES   REMARKS
FARGO          CLOUDY    21  11  65 NW14      30.31R WCI   8
6HR MIN TEMP:  20; 6HR MAX TEMP:  24; 6HR PCP:  0.01;

JAMESTOWN      CLEAR     17   6  62 NW10      30.30R WCI   5
$$




USA.gov is the U.S. government's official web portal to all federal, state and local government web resources and services.